Content
SEND FEEDBACK

Daily
Averages
Monthly
Summary
Mexico

PUERTO MORELOS, QUINTANA ROO


Home > North America > Mexico > Quintana Roo
Elevation: 20 feet     Latitude: 20 51N     Longitude: 086 52W

WEATHER
 
SELECT A DAY
Number of Records: 163,979;   Date Range: 1/1/95 - 9/21/14
 
SHARE

PRINT THIS DATA

[ ← Previous Day ]
WEATHER ALMANAC - MAY 22, 2013
[ Next Day → ]
[ °C ]   °F
Weather ElementAverageHighLow
Temperature83.9 °F87.8 °F (11:41 am)80.6 °F (1:44 am)
Dewpoint75 °F75.2 °F (1:44 am)73.4 °F (11:41 am)
Humidity74.9 %84 % (1:44 am)62 % (11:41 am)
Barometer29.87 in29.92 in (10:44 pm)29.83 in (3:46 am)
Wind Speed13 mph17.3 mph (9:43 am)
Weather ElementAverage
Visibility7 mi
Wind DirectionSE (130.9 °)

Weather ElementTotal
Precipitation---
Cooling Degree Days19.2 (Base 65)
Growing Degree Days34.2 (Base 50)
Averaged from 23 records on May 22, 2013
WEATHER CONDITIONS BREAKOUT
WIND DIRECTION BREAKOUT
WEATHER BY HOUR - MAY 22, 2013
[ °C ]   °F
Local TimeTemperatureDewpointHumidityBarometerVisibilityWind DirectionWind SpeedGust SpeedPrecipitationEventsConditions
1:44 AM80.6 °F75.2 °F84 %29.86 in7.0 miSE (130°)10.4 mphClear
2:43 AM80.6 °F75.2 °F84 %29.84 in7.0 miSE (140°)10.4 mphPartly Cloudy
3:46 AM80.6 °F75.2 °F84 %29.83 in7.0 miSE (130°)12.7 mphScattered Clouds
4:45 AM80.6 °F75.2 °F84 %29.84 in7.0 miSE (140°)13.8 mphScattered Clouds
5:44 AM80.6 °F75.2 °F84 %29.85 in7.0 miESE (120°)11.5 mphScattered Clouds
6:49 AM82.4 °F75.2 °F79 %29.86 in7.0 miSE (140°)13.8 mphScattered Clouds
7:41 AM82.4 °F75.2 °F79 %29.86 in7.0 miSE (140°)16.1 mphMostly Cloudy
8:41 AM84.2 °F75.2 °F74 %29.87 in7.0 miSE (140°)16.1 mphMostly Cloudy
9:43 AM86.0 °F75.2 °F70 %29.91 in7.0 miSSE (150°)17.3 mphMostly Cloudy
10:41 AM86.0 °F75.2 °F70 %29.90 in7.0 miSE (130°)15.0 mphMostly Cloudy
11:41 AM87.8 °F73.4 °F62 %29.90 in7.0 miSE (130°)17.3 mphMostly Cloudy
12:44 PM87.8 °F73.4 °F62 %29.89 in7.0 miSSE (160°)15.0 mphScattered Clouds
1:41 PM87.8 °F75.2 °F66 %29.88 in7.0 miESE (120°)12.7 mphMostly Cloudy
2:42 PM87.8 °F73.4 °F62 %29.88 in7.0 miSE (130°)13.8 mphMostly Cloudy
3:41 PM87.8 °F75.2 °F66 %29.87 in7.0 miSSE (150°)13.8 mphMostly Cloudy
4:44 PM86.0 °F75.2 °F70 %29.85 in7.0 miESE (120°)17.3 mphMostly Cloudy
5:44 PM84.2 °F75.2 °F74 %29.85 in7.0 miSE (140°)13.8 mphMostly Cloudy
6:41 PM84.2 °F75.2 °F74 %29.86 in7.0 miESE (110°)10.4 mphMostly Cloudy
7:40 PM82.4 °F75.2 °F79 %29.87 in7.0 miESE (120°)6.9 mphMostly Cloudy
8:42 PM82.4 °F75.2 °F79 %29.88 in7.0 miESE (110°)9.2 mphScattered Clouds
9:45 PM82.4 °F75.2 °F79 %29.89 in7.0 miESE (120°)9.2 mphMostly Cloudy
10:44 PM82.4 °F75.2 °F79 %29.92 in7.0 miESE (120°)9.2 mphMostly Cloudy
11:44 PM82.4 °F75.2 °F79 %29.92 in7.0 miESE (120°)12.7 mphMostly Cloudy
Hourly data recorded from MMUN, located miles away from Puerto Morelos, Quintana Roo







STORIES FROM OUR PARTNERS